Location: Albany
(35.0000°S, 118.0000°E)
Time: 18:14:05
(UTC-04:00)

Atlas Centaur 2 - Visible Passes

Search period start: 30 August 2014 00:00
Search period end: 09 September 2014 00:00
Orbit: 460 x 1329 km, 30.4° (Epoch: 29 August)

Date Brightness Start Highest point End Pass type
(mag) Time Alt. Az. Time Alt. Az. Time Alt. Az.
30 Aug 3.0 06:23:30 10° NW 06:27:21 28° NNE 06:31:42 11° E visible
30 Aug 3.0 08:11:02 10° WNW 08:14:31 41° NW 08:14:31 41° NW visible
31 Aug 2.7 06:22:43 10° NW 06:26:37 33° NNE 06:31:07 11° E visible
31 Aug 2.9 08:10:29 10° WNW 08:13:56 42° NW 08:13:56 42° NW visible
01 Sep 2.5 06:22:00 10° NW 06:25:55 37° NNE 06:30:31 11° E visible
01 Sep 2.9 08:09:57 10° WNW 08:13:20 42° NW 08:13:20 42° NW visible
02 Sep 2.3 06:21:21 10° WNW 06:25:14 41° NNE 06:29:54 11° E visible
02 Sep 2.9 08:09:25 10° WNW 08:12:43 40° NW 08:12:43 40° NW visible
03 Sep 2.2 06:20:44 10° WNW 06:24:35 44° N 06:29:17 10° E visible
03 Sep 2.9 08:08:55 10° W 08:12:06 37° NW 08:12:06 37° NW visible
04 Sep 2.1 06:20:09 10° WNW 06:23:57 45° N 06:28:33 10° ENE visible
04 Sep 3.0 08:08:27 10° WNW 08:11:29 34° NW 08:11:29 34° NW visible
05 Sep 2.1 06:19:35 10° WNW 06:23:19 45° N 06:27:47 10° ENE visible
05 Sep 3.1 08:08:00 10° WNW 08:10:54 30° NW 08:10:54 30° NW visible
06 Sep 2.1 06:19:03 10° WNW 06:22:41 43° N 06:27:00 10° ENE visible
06 Sep 3.3 08:07:38 10° WNW 08:10:19 25° NW 08:10:19 25° NW visible
07 Sep 2.3 06:18:31 10° WNW 06:22:03 39° N 06:26:10 10° ENE visible
07 Sep 3.5 08:07:21 10° WNW 08:09:47 21° NW 08:09:47 21° NW visible
08 Sep 2.5 06:18:00 10° WNW 06:21:25 34° N 06:25:18 10° ENE visible
08 Sep 3.8 08:07:16 10° WNW 08:09:17 16° NNW 08:09:17 16° NNW visible
